Location: Newark
(30.0333°N, 31.2167°E)
Time: 15:40:07
(UTC+00:00)

Tiros 1 despin weight - Pass Details

Date: 21 January 2020
Orbit: 594 x 642 km, 48.2° (Epoch: 24 February)

Event Time Altitude Azimuth Distance (km) Brightness Sun altitude
Rises 15:24:33 0° 323° (NW) 2,926 ? -1.3°
Reaches altitude 10° 15:27:45 10° 346° (NNW) 2,023 ? -2.0°
Maximum altitude 15:30:34 16° 23° (NNE) 1,681 ? -2.5°
Drops below altitude 10° 15:33:24 10° 61° (ENE) 2,028 ? -3.1°
Enters shadow 15:35:24 - 77° (ENE) 2,564 ? -3.5°
Sets 15:36:36 0° 83° (E) 2,937 - -3.7°
